Location: Arnold
(38.6403°N, 100.0462°W)
Time: 19:45:57
(UTC-05:00)

Hubble Space Telescope - Visible Passes

Search period start: 16 October 2018 00:00
Search period end: 26 October 2018 00:00
Orbit: 537 x 541 km, 28.5° (Epoch: 16 October)

Date Brightness Start Highest point End Pass type
(mag) Time Alt. Az. Time Alt. Az. Time Alt. Az.
16 Oct 3.2 06:14:42 11° SSW 06:16:28 13° SSE 06:18:29 10° SE visible
17 Oct 3.0 06:05:03 14° S 06:05:56 15° SSE 06:08:20 10° SE visible
18 Oct 2.9 05:55:22 17° S 05:55:25 17° S 05:58:05 10° SE visible
19 Oct 3.0 05:45:39 17° SSE 05:45:39 17° SSE 05:47:44 10° SE visible
19 Oct 2.8 07:22:35 10° SW 07:25:29 19° S 07:28:25 10° SE visible
20 Oct 3.2 05:35:54 16° SSE 05:35:54 16° SSE 05:37:21 10° SE visible
20 Oct 2.8 07:12:12 10° SW 07:14:59 18° S 07:17:46 10° SE visible
21 Oct 3.5 05:26:10 13° SE 05:26:10 13° SE 05:26:54 10° SE visible
21 Oct 2.9 07:01:53 10° SW 07:04:28 16° S 07:07:04 10° SSE visible
22 Oct 3.0 06:51:47 10° SW 06:53:57 15° SSW 06:56:15 10° SSE visible
23 Oct 3.0 06:42:04 11° SW 06:43:25 13° SSW 06:45:19 10° SSE visible
24 Oct 3.1 06:32:23 11° SSW 06:32:53 11° SSW 06:34:01 10° S visible
